Voltar ao catálogo

DEB CSSHQ

AtivoVLEO
NORAD 62721·DEBRIS·🇨🇳 China
Este nome de satélite ainda não foi confirmado por fontes oficiais.

Lançado Dec 14, 2023 de Jiuquan Satellite Launch Center

Loading…

Próximas Passagens (próximas 24 horas)

TLE

ObsoletoSource: Space-Track

Época: Sep 7, 2026, 13:46 UTC

1 62721U 23195H   26250.57425272  .00007623  00000-0  49917-3 0  9998
2 62721  49.9836 195.1373 0001432  21.2995 338.8013 15.08560522112033

Acompanhe DEB CSSHQ em tempo real com AllMySat

Download on the App Store